When you browse on this site, cookies collect data to enhance your experience and personalize the content and advertising you see.
Visit our Privacy Policy to learn more. By continuing to use the site, you agree to this use of cookies and data.

Previsão horária em 2-e Itkulovo

Hoje, 26 Setembro, Sábado

Tempo Temperatura Precipitação Vento Pressão Humidade
00:00 +5°C° 0 mm 0 m/s 723 mmHg 69%
01:00 +4°C° 0 mm 0 m/s 723 mmHg 69%
02:00 +4°C° 0 mm 0 m/s 723 mmHg 70%
03:00 +4°C° 0 mm 0 m/s 724 mmHg 70%
04:00 +4°C° 0 mm 0 m/s 724 mmHg 71%
05:00 +4°C° 0 mm 0 m/s 724 mmHg 71%
06:00 +4°C° 0 mm 0 m/s 724 mmHg 70%
07:00 +5°C° 0 mm 0 m/s 724 mmHg 70%
08:00 +7°C° 0 mm 0 m/s 725 mmHg 63%
09:00 +10°C° 0 mm 0 m/s 725 mmHg 56%
10:00 +12°C° 0 mm 0 m/s 725 mmHg 50%
11:00 +13°C° 0 mm 0 m/s 725 mmHg 47%
12:00 +14°C° 0 mm 0 m/s 725 mmHg 45%
13:00 +15°C° 0 mm 0 m/s 725 mmHg 42%
14:00 +16°C° 0 mm 1 m/s 725 mmHg 43%
15:00 +15°C° 0 mm 1 m/s 725 mmHg 44%
16:00 +15°C° 0 mm 1 m/s 725 mmHg 45%
17:00 +13°C° 0 mm 1 m/s 725 mmHg 51%
18:00 +11°C° 0 mm 1 m/s 724 mmHg 57%
19:00 +8°C° 0 mm 0 m/s 724 mmHg 64%
20:00 +7°C° 0 mm 0 m/s 724 mmHg 65%
21:00 +7°C° 0 mm 0 m/s 724 mmHg 67%
22:00 +6°C° 0 mm 0 m/s 725 mmHg 68%
23:00 +6°C° 0 mm 0 m/s 725 mmHg 69%

Amanhã, 27 Setembro, Domingo

Tempo Temperatura Precipitação Vento Pressão Humidade
00:00 +6°C° 0 mm 0 m/s 725 mmHg 70%
01:00 +5°C° 0 mm 0 m/s 725 mmHg 72%
02:00 +5°C° 0 mm 0 m/s 725 mmHg 73%
03:00 +5°C° 0 mm 0 m/s 725 mmHg 74%
04:00 +5°C° 0 mm 0 m/s 726 mmHg 75%
05:00 +5°C° 0 mm 0 m/s 726 mmHg 74%
06:00 +5°C° 0 mm 0 m/s 726 mmHg 74%
07:00 +5°C° 0 mm 0 m/s 726 mmHg 74%
08:00 +8°C° 0 mm 0 m/s 726 mmHg 67%
09:00 +10°C° 0 mm 0 m/s 726 mmHg 61%
10:00 +13°C° 0 mm 1 m/s 726 mmHg 54%
11:00 +14°C° 0 mm 1 m/s 726 mmHg 50%
12:00 +16°C° 0 mm 1 m/s 726 mmHg 46%
13:00 +18°C° 0 mm 1 m/s 726 mmHg 43%
14:00 +16°C° 0 mm 1 m/s 726 mmHg 44%
15:00 +16°C° 0 mm 1 m/s 726 mmHg 45%
16:00 +16°C° 0 mm 1 m/s 726 mmHg 46%
17:00 +14°C° 0 mm 1 m/s 726 mmHg 54%
18:00 +12°C° 0 mm 1 m/s 725 mmHg 63%
19:00 +10°C° 0 mm 1 m/s 725 mmHg 71%
20:00 +9°C° 0 mm 1 m/s 725 mmHg 75%
21:00 +9°C° 0 mm 1 m/s 725 mmHg 79%
22:00 +8°C° 0 mm 1 m/s 725 mmHg 82%
23:00 +8°C° 0 mm 1 m/s 725 mmHg 83%

Depois de amanhã, 28 Setembro, Segunda-feira

Tempo Temperatura Precipitação Vento Pressão Humidade
00:00 +8°C° 0 mm 1 m/s 725 mmHg 84%
01:00 +7°C° 0 mm 1 m/s 725 mmHg 85%
02:00 +7°C° 0 mm 1 m/s 725 mmHg 86%
03:00 +7°C° 0 mm 1 m/s 725 mmHg 86%
04:00 +7°C° 0 mm 1 m/s 725 mmHg 87%
05:00 +7°C° 0 mm 1 m/s 726 mmHg 87%
06:00 +7°C° 0 mm 1 m/s 726 mmHg 87%
07:00 +7°C° 0 mm 1 m/s 726 mmHg 87%
08:00 +9°C° 0 mm 1 m/s 726 mmHg 79%
09:00 +11°C° 0 mm 1 m/s 726 mmHg 70%
10:00 +13°C° 0 mm 1 m/s 726 mmHg 62%
11:00 +15°C° 0 mm 1 m/s 726 mmHg 57%
12:00 +16°C° 0 mm 1 m/s 726 mmHg 53%
13:00 +16°C° 0 mm 0 m/s 726 mmHg 48%
14:00 +18°C° 0 mm 1 m/s 726 mmHg 50%
15:00 +16°C° 0 mm 1 m/s 726 mmHg 51%
16:00 +16°C° 0 mm 1 m/s 725 mmHg 52%
17:00 +14°C° 0 mm 1 m/s 725 mmHg 59%
18:00 +13°C° 0 mm 1 m/s 725 mmHg 66%
19:00 +11°C° 0 mm 1 m/s 725 mmHg 73%
20:00 +10°C° 0 mm 1 m/s 725 mmHg 75%
21:00 +10°C° 0 mm 1 m/s 725 mmHg 78%
22:00 +9°C° 0 mm 1 m/s 725 mmHg 81%
23:00 +9°C° 0 mm 1 m/s 725 mmHg 81%

29 Setembro, Terça-feira

Tempo Temperatura Precipitação Vento Pressão Humidade
00:00 +9°C° 0 mm 1 m/s 725 mmHg 82%
01:00 +9°C° 0 mm 1 m/s 725 mmHg 82%
02:00 +8°C° 0 mm 1 m/s 725 mmHg 83%
03:00 +8°C° 0 mm 1 m/s 725 mmHg 84%
04:00 +8°C° 0 mm 1 m/s 725 mmHg 84%
05:00 +8°C° 0 mm 1 m/s 726 mmHg 84%
06:00 +7°C° 0 mm 0 m/s 726 mmHg 83%
07:00 +7°C° 0 mm 0 m/s 726 mmHg 82%
08:00 +9°C° 0 mm 0 m/s 726 mmHg 74%
09:00 +12°C° 0 mm 0 m/s 726 mmHg 66%
10:00 +14°C° 0 mm 0 m/s 726 mmHg 58%
11:00 +16°C° 0 mm 1 m/s 726 mmHg 55%
12:00 +16°C° 0 mm 1 m/s 726 mmHg 53%
13:00 +18°C° 0 mm 1 m/s 726 mmHg 50%
14:00 +17°C° 0 mm 2 m/s 726 mmHg 51%
15:00 +17°C° 0 mm 2 m/s 726 mmHg 53%
16:00 +16°C° 0 mm 2 m/s 726 mmHg 54%
17:00 +15°C° 0 mm 2 m/s 725 mmHg 59%
18:00 +13°C° 0 mm 2 m/s 725 mmHg 64%
19:00 +11°C° 0 mm 1 m/s 725 mmHg 69%
20:00 +11°C° 0 mm 1 m/s 725 mmHg 73%
21:00 +10°C° 0 mm 1 m/s 725 mmHg 77%
22:00 +9°C° 0 mm 1 m/s 725 mmHg 81%
23:00 +9°C° 0 mm 1 m/s 725 mmHg 84%

30 Setembro, Quarta-feira

Tempo Temperatura Precipitação Vento Pressão Humidade
00:00 +9°C° 0 mm 1 m/s 725 mmHg 86%
01:00 +8°C° 0 mm 1 m/s 725 mmHg 89%
02:00 +8°C° 0 mm 1 m/s 725 mmHg 90%
03:00 +8°C° 0 mm 1 m/s 725 mmHg 91%
04:00 +8°C° 0 mm 1 m/s 725 mmHg 92%
05:00 +8°C° 0 mm 1 m/s 725 mmHg 93%
06:00 +8°C° 0 mm 1 m/s 725 mmHg 93%
07:00 +8°C° 0 mm 1 m/s 725 mmHg 94%
08:00 +10°C° 0 mm 1 m/s 725 mmHg 86%
09:00 +12°C° 0 mm 1 m/s 725 mmHg 78%
10:00 +14°C° 0 mm 1 m/s 725 mmHg 71%
11:00 +15°C° 0 mm 1 m/s 725 mmHg 66%
12:00 +16°C° 0 mm 1 m/s 725 mmHg 62%
13:00 +18°C° 0 mm 1 m/s 725 mmHg 58%
14:00 +18°C° 0 mm 1 m/s 725 mmHg 59%
15:00 +16°C° 0 mm 1 m/s 724 mmHg 60%
16:00 +16°C° 0 mm 1 m/s 724 mmHg 61%
17:00 +15°C° 0 mm 1 m/s 724 mmHg 66%
18:00 +13°C° 0 mm 1 m/s 724 mmHg 72%
19:00 +12°C° 0 mm 1 m/s 724 mmHg 77%
20:00 +10°C° 0 mm 0 m/s 724 mmHg 81%
21:00 +9°C° 0 mm 0 m/s 724 mmHg 84%
22:00 +9°C° 0 mm 0 m/s 723 mmHg 87%
23:00 +8°C° 0 mm 0 m/s 723 mmHg 88%

1 Outubro, Quinta-feira

Tempo Temperatura Precipitação Vento Pressão Humidade
00:00 +8°C° 0 mm 0 m/s 724 mmHg 89%
01:00 +9°C° 0 mm 1 m/s 724 mmHg 89%
02:00 +8°C° 0 mm 1 m/s 723 mmHg 90%
03:00 +8°C° 0 mm 1 m/s 723 mmHg 90%
04:00 +8°C° 0 mm 1 m/s 723 mmHg 91%
05:00 +8°C° 0 mm 1 m/s 724 mmHg 91%
06:00 +8°C° 0 mm 1 m/s 724 mmHg 91%
07:00 +8°C° 0 mm 1 m/s 724 mmHg 91%
08:00 +10°C° 0 mm 1 m/s 724 mmHg 84%
09:00 +12°C° 0 mm 1 m/s 724 mmHg 76%
10:00 +14°C° 0 mm 2 m/s 724 mmHg 69%
11:00 +14°C° 0 mm 2 m/s 724 mmHg 65%
12:00 +15°C° 0 mm 2 m/s 724 mmHg 61%
13:00 +16°C° 0 mm 2 m/s 724 mmHg 57%
14:00 +16°C° 0 mm 2 m/s 724 mmHg 57%
15:00 +15°C° 0 mm 2 m/s 724 mmHg 58%
16:00 +15°C° 0 mm 2 m/s 724 mmHg 59%
17:00 +14°C° 0 mm 2 m/s 724 mmHg 66%
18:00 +12°C° 0 mm 1 m/s 724 mmHg 73%
19:00 +10°C° 0 mm 1 m/s 723 mmHg 80%
20:00 +10°C° 0 mm 1 m/s 723 mmHg 82%
21:00 +9°C° 0 mm 1 m/s 724 mmHg 84%
22:00 +9°C° 0 mm 1 m/s 724 mmHg 86%
23:00 +8°C° 0 mm 1 m/s 724 mmHg 86%
Mostrar mais